This is the latest recevied weather packets stored in our database for station/object W4OTS. If no packets are shown the sender has not sent any weather packets the latest 10 day(s).
| Time | Temp. | Humidity | Pressure | Rain* | Wind** | Luminosity | Snow |
|---|---|---|---|---|---|---|---|
| 1777771779 | 12.22° C | 53% | 1016.9 hPa | 0 mm | - | 0 W/m² | - |
| 1777771477 | 12.22° C | 53% | 1016.4 hPa | 0 mm | - | 0 W/m² | - |
| 1777771173 | 12.78° C | 53% | 1016.3 hPa | 0 mm | - | 0 W/m² | - |
| 1777770870 | 12.78° C | 53% | 1016.3 hPa | 0 mm | - | 0 W/m² | - |
| 1777770567 | 13.33° C | 54% | 1016.4 hPa | 0 mm | - | 0 W/m² | - |
| 1777770264 | 13.33° C | 55% | 1016.1 hPa | 0 mm | - | 0 W/m² | - |
| 1777769961 | 13.89° C | 52% | 1016.1 hPa | 0 mm | - | 0 W/m² | - |
| 1777769658 | 13.89° C | 49% | 1016.1 hPa | 0 mm | - | 0 W/m² | - |
| 1777769355 | 13.89° C | 51% | 1015.8 hPa | 0 mm | - | 0 W/m² | - |
| 1777769052 | 13.89° C | 48% | 1015.7 hPa | 0 mm | - | 0 W/m² | - |
| 1777768749 | 14.44° C | 47% | 1015.7 hPa | 0 mm | - | 0 W/m² | - |
| 1777768446 | 14.44° C | 48% | 1015.6 hPa | 0 mm | - | 0 W/m² | - |
| 1777768143 | 14.44° C | 46% | 1015.6 hPa | 0 mm | - | 0 W/m² | - |
| 1777767840 | 14.44° C | 48% | 1015.5 hPa | 0 mm | - | 0 W/m² | - |
| 1777767536 | 14.44° C | 45% | 1015.5 hPa | 0 mm | - | 0 W/m² | - |
| 1777767233 | 15° C | 47% | 1015.3 hPa | 0 mm | - | 0 W/m² | - |
| 1777766931 | 15° C | 48% | 1015 hPa | 0 mm | - | 1 W/m² | - |
| 1777766628 | 15° C | 46% | 1015.1 hPa | 0 mm | - | 2 W/m² | - |
| 1777766324 | 15° C | 45% | 1014.6 hPa | 0 mm | - | 4 W/m² | - |
| 1777766022 | 15° C | 44% | 1014.7 hPa | 0 mm | - | 6 W/m² | - |
| 1777765718 | 15° C | 46% | 1014.4 hPa | 0 mm | - | 7 W/m² | - |
| 1777765415 | 15° C | 44% | 1014.6 hPa | 0 mm | - | 8 W/m² | - |
| 1777765112 | 15.56° C | 45% | 1014.6 hPa | 0 mm | - | 9 W/m² | - |
| 1777764808 | 15.56° C | 45% | 1014.4 hPa | 0 mm | - | 11 W/m² | - |
| 1777764505 | 15.56° C | 46% | 1014.2 hPa | 0 mm | - | 13 W/m² | - |
* Rain latest hour (hover to see other rain measurements)
** Current wind speed in m/s (hover to see current wind gust speed)